Date,TemperatureHighF,TemperatureAvgF,TemperatureLowF,DewpointHighF,DewpointAvgF,DewpointLowF,HumidityHigh,HumidityAvg,HumidityLow,PressureMaxIn,PressureMinIn,WindSpeedMaxMPH,WindSpeedAvgMPH,GustSpeedMaxMPH,PrecipitationSumIn
2013-12-1,70,51,36,55,46,35,98,85,55,30.27,30.00,1,0,3,0.00
2013-12-2,73,58,45,60,54,44,98,86,59,30.01,29.78,2,0,3,0.00
2013-12-3,70,65,60,68,64,60,100,98,91,29.83,29.74,2,0,4,0.16
2013-12-4,76,70,67,72,69,66,100,96,82,29.95,29.82,3,0,5,0.00
2013-12-5,73,71,69,73,71,69,100,100,99,30.02,29.93,2,1,3,0.13
2013-12-6,76,66,46,74,65,44,100,97,91,30.18,29.94,6,1,11,0.91
2013-12-7,45,40,39,45,40,38,98,97,94,30.31,30.17,9,4,12,0.08
2013-12-8,53,46,40,53,46,40,100,99,98,30.24,30.03,3,1,5,0.01
2013-12-9,61,55,51,58,54,51,100,97,89,30.14,30.04,5,2,9,0.10
2013-12-10,55,43,36,54,40,34,98,90,74,30.35,30.05,8,3,14,0.09
2013-12-11,58,45,33,48,38,31,94,78,53,30.40,30.31,4,1,7,0.00
2013-12-12,54,44,32,40,32,28,88,66,37,30.51,30.38,8,3,14,0.00
2013-12-13,60,47,30,53,41,26,90,79,64,30.37,29.98,2,0,5,0.00
2013-12-14,77,62,48,67,59,45,97,89,62,30.04,29.82,6,1,12,0.06
2013-12-15,48,42,30,45,37,29,95,82,68,30.31,30.04,8,2,12,0.00
2013-12-16,59,41,29,42,34,28,97,81,42,30.36,30.24,2,0,4,0.00
2013-12-17,65,44,31,47,37,30,97,78,38,30.34,30.22,2,0,2,0.01
2013-12-18,66,46,33,47,38,32,97,77,39,30.37,30.23,2,0,5,0.00
2013-12-19,71,55,34,59,50,32,97,86,65,30.23,30.05,3,0,3,0.00
2013-12-20,73,67,60,69,65,59,97,94,86,30.10,29.96,2,1,6,0.00
2013-12-21,75,72,70,72,70,69,98,96,92,29.95,29.80,4,2,13,0.01
2013-12-22,72,58,54,71,58,54,100,99,96,30.12,29.81,5,1,9,3.20
2013-12-23,54,44,34,54,42,32,100,92,82,30.44,30.10,8,3,13,0.16
2013-12-24,50,38,31,34,31,28,94,78,51,30.52,30.38,8,2,14,0.00
2013-12-25,46,37,28,35,30,25,93,75,51,30.41,30.30,3,0,7,0.00
2013-12-26,55,42,33,41,35,30,93,75,46,30.38,30.27,6,1,8,0.00
2013-12-27,58,49,40,40,37,35,85,64,48,30.40,30.27,8,3,10,0.00
2013-12-28,50,47,44,47,45,36,99,95,59,30.27,29.93,6,2,9,1.76
2013-12-29,60,50,41,50,46,40,99,88,57,30.12,29.95,4,0,5,0.01
2013-12-30,54,47,38,51,45,38,99,95,85,30.32,30.10,3,0,3,0.00
2013-12-31,48,43,41,47,41,39,97,91,85,30.42,30.29,6,2,10,0.10